Time,TemperatureF,DewpointF,PressureIn,WindDirection,WindDirectionDegrees,WindSpeedMPH,WindSpeedGustMPH,Humidity,HourlyPrecipIn,Conditions,Clouds,dailyrainin,SoftwareType,DateUTC
2013-08-06 00:13:00,70.6,-22.0,30.03,NE,37,0.0,-999.0,2,-99.99,,,0.01,weatherlink.com 1.10,2013-08-06 04:13:00,
2013-08-06 00:28:00,70.4,-35.0,30.02,NE,37,0.0,-999.0,1,-99.99,,,0.00,weatherlink.com 1.10,2013-08-06 04:28:00,
2013-08-06 00:43:00,70.3,-35.0,30.02,NNE,28,0.0,-999.0,1,-99.99,,,0.00,weatherlink.com 1.10,2013-08-06 04:43:00,
2013-08-06 00:58:00,70.3,-99.9,30.02,NE,34,0.0,-999.0,0,-99.99,,,0.00,weatherlink.com 1.10,2013-08-06 04:58:00,
2013-08-06 01:13:00,70.4,-99.9,30.02,ENE,57,0.0,-999.0,0,-99.99,,,0.00,weatherlink.com 1.10,2013-08-06 05:13:00,
2013-08-06 01:28:00,70.4,-99.9,30.02,ENE,57,0.0,-999.0,0,-99.99,,,0.00,weatherlink.com 1.10,2013-08-06 05:28:00,
2013-08-06 01:43:00,70.5,-99.9,30.02,ESE,123,0.0,-999.0,0,-99.99,,,0.00,weatherlink.com 1.10,2013-08-06 05:43:00,
2013-08-06 01:58:00,70.5,-99.9,30.03,NNW,347,0.0,-999.0,0,-99.99,,,0.00,weatherlink.com 1.10,2013-08-06 05:58:00,
2013-08-06 02:13:00,70.4,-99.9,30.02,NNW,347,0.0,-999.0,0,-99.99,,,0.00,weatherlink.com 1.10,2013-08-06 06:13:00,
2013-08-06 02:27:00,70.3,-99.9,30.02,NNW,347,0.0,-999.0,0,-99.99,,,0.00,weatherlink.com 1.10,2013-08-06 06:27:00,
2013-08-06 02:42:00,70.1,-99.9,30.01,NNW,347,1.0,-999.0,0,-99.99,,,0.00,weatherlink.com 1.10,2013-08-06 06:42:00,
2013-08-06 02:57:00,70.1,-99.9,30.00,NNW,347,0.0,-999.0,0,-99.99,,,0.00,weatherlink.com 1.10,2013-08-06 06:57:00,
2013-08-06 03:12:00,70.1,-99.9,30.00,NNW,347,0.0,-999.0,0,-99.99,,,0.00,weatherlink.com 1.10,2013-08-06 07:12:00,
2013-08-06 03:27:00,70.0,-99.9,30.00,NNW,347,0.0,-999.0,0,-99.99,,,0.00,weatherlink.com 1.10,2013-08-06 07:27:00,
2013-08-06 03:42:00,69.9,-99.9,30.00,NNW,347,0.0,-999.0,0,-99.99,,,0.00,weatherlink.com 1.10,2013-08-06 07:42:00,
2013-08-06 03:57:00,70.0,-99.9,29.99,NNW,347,0.0,-999.0,0,-99.99,,,0.00,weatherlink.com 1.10,2013-08-06 07:57:00,
2013-08-06 04:12:00,69.9,-99.9,29.99,NNW,347,0.0,-999.0,0,-99.99,,,0.00,weatherlink.com 1.10,2013-08-06 08:12:00,
2013-08-06 04:27:00,69.9,-99.9,29.99,NNW,347,0.0,-999.0,0,-99.99,,,0.00,weatherlink.com 1.10,2013-08-06 08:27:00,
2013-08-06 04:42:00,69.8,-99.9,30.00,NNW,347,0.0,-999.0,0,-99.99,,,0.00,weatherlink.com 1.10,2013-08-06 08:42:00,
2013-08-06 04:57:00,69.7,-99.9,29.99,NNW,347,0.0,-999.0,0,-99.99,,,0.00,weatherlink.com 1.10,2013-08-06 08:57:00,
2013-08-06 05:12:00,69.5,-99.9,30.00,NNW,347,0.0,-999.0,0,-99.99,,,0.00,weatherlink.com 1.10,2013-08-06 09:12:00,
2013-08-06 05:27:00,69.4,-99.9,29.99,NNE,24,0.0,-999.0,0,-99.99,,,0.00,weatherlink.com 1.10,2013-08-06 09:27:00,
2013-08-06 05:42:00,69.2,-99.9,29.99,NNE,24,0.0,-999.0,0,-99.99,,,0.00,weatherlink.com 1.10,2013-08-06 09:42:00,
2013-08-06 05:57:00,69.2,-99.9,29.99,NNE,24,0.0,-999.0,0,-99.99,,,0.00,weatherlink.com 1.10,2013-08-06 09:57:00,
2013-08-06 06:12:00,69.1,-99.9,29.99,NNE,24,0.0,-999.0,0,-99.99,,,0.00,weatherlink.com 1.10,2013-08-06 10:12:00,
2013-08-06 06:27:00,69.1,-99.9,29.99,NNE,24,0.0,-999.0,0,-99.99,,,0.00,weatherlink.com 1.10,2013-08-06 10:27:00,
2013-08-06 06:42:00,69.0,-99.9,30.00,NNE,24,0.0,-999.0,0,-99.99,,,0.00,weatherlink.com 1.10,2013-08-06 10:42:00,
2013-08-06 06:57:00,69.0,-99.9,30.01,NNE,24,0.0,-999.0,0,-99.99,,,0.00,weatherlink.com 1.10,2013-08-06 10:57:00,
2013-08-06 07:12:00,69.0,-99.9,30.02,NNE,24,0.0,-999.0,0,-99.99,,,0.00,weatherlink.com 1.10,2013-08-06 11:12:00,
2013-08-06 07:27:00,69.0,-99.9,30.02,NNE,24,0.0,-999.0,0,-99.99,,,0.00,weatherlink.com 1.10,2013-08-06 11:27:00,
2013-08-06 07:42:00,69.1,-99.9,30.03,NNE,24,0.0,-999.0,0,-99.99,,,0.00,weatherlink.com 1.10,2013-08-06 11:42:00,
2013-08-06 07:57:00,69.2,-99.9,30.03,NNE,24,0.0,-999.0,0,-99.99,,,0.00,weatherlink.com 1.10,2013-08-06 11:57:00,
2013-08-06 08:12:00,69.4,-99.9,30.03,NNE,24,0.0,-999.0,0,-99.99,,,0.00,weatherlink.com 1.10,2013-08-06 12:12:00,
2013-08-06 08:27:00,69.6,-99.9,30.04,NNE,24,0.0,-999.0,0,-99.99,,,0.00,weatherlink.com 1.10,2013-08-06 12:27:00,
2013-08-06 08:42:00,70.1,-99.9,30.04,NNE,24,0.0,-999.0,0,-99.99,,,0.00,weatherlink.com 1.10,2013-08-06 12:42:00,
2013-08-06 08:57:00,70.3,-99.9,30.04,ENE,59,0.0,-999.0,0,-99.99,,,0.00,weatherlink.com 1.10,2013-08-06 12:57:00,
2013-08-06 09:12:00,70.4,-99.9,30.04,ENE,59,0.0,-999.0,0,-99.99,,,0.00,weatherlink.com 1.10,2013-08-06 13:12:00,
2013-08-06 09:27:00,70.5,-99.9,30.05,ENE,59,0.0,-999.0,0,-99.99,,,0.00,weatherlink.com 1.10,2013-08-06 13:27:00,
2013-08-06 09:42:00,70.7,-99.9,30.04,ENE,59,0.0,-999.0,0,-99.99,,,0.00,weatherlink.com 1.10,2013-08-06 13:42:00,
2013-08-06 09:57:00,70.8,-99.9,30.05,ENE,59,0.0,-999.0,0,-99.99,,,0.00,weatherlink.com 1.10,2013-08-06 13:57:00,
2013-08-06 10:12:00,71.1,-99.9,30.05,ENE,59,0.0,-999.0,0,-99.99,,,0.00,weatherlink.com 1.10,2013-08-06 14:12:00,
2013-08-06 10:27:00,71.1,-99.9,30.05,ENE,59,0.0,-999.0,0,-99.99,,,0.00,weatherlink.com 1.10,2013-08-06 14:27:00,
2013-08-06 10:42:00,71.6,-99.9,30.05,ENE,59,0.0,-999.0,0,-99.99,,,0.00,weatherlink.com 1.10,2013-08-06 14:42:00,
2013-08-06 10:57:00,72.2,-99.9,30.06,ENE,59,0.0,-999.0,0,-99.99,,,0.00,weatherlink.com 1.10,2013-08-06 14:57:00,
2013-08-06 11:12:00,72.9,17.0,30.05,ENE,59,0.0,-999.0,12,-99.99,,,0.00,weatherlink.com 1.10,2013-08-06 15:12:00,
2013-08-06 11:27:00,73.1,52.0,30.05,ENE,59,0.0,-999.0,47,-99.99,,,0.00,weatherlink.com 1.10,2013-08-06 15:27:00,
2013-08-06 11:42:00,73.6,60.0,30.05,ENE,59,0.0,-999.0,63,-99.99,,,0.00,weatherlink.com 1.10,2013-08-06 15:42:00,
2013-08-06 11:57:00,75.1,65.0,30.04,SE,136,0.0,-999.0,70,-99.99,,,0.00,weatherlink.com 1.10,2013-08-06 15:57:00,
2013-08-06 12:12:00,75.9,67.0,30.04,SE,136,0.0,-999.0,73,-99.99,,,0.00,weatherlink.com 1.10,2013-08-06 16:12:00,
2013-08-06 12:27:00,76.1,66.0,30.05,SE,136,0.0,-999.0,71,-99.99,,,0.00,weatherlink.com 1.10,2013-08-06 16:27:00,
2013-08-06 12:42:00,76.1,66.0,30.04,SE,136,0.0,-999.0,70,-99.99,,,0.00,weatherlink.com 1.10,2013-08-06 16:42:00,
2013-08-06 12:57:00,76.4,66.0,30.04,SE,136,0.0,-999.0,69,-99.99,,,0.00,weatherlink.com 1.10,2013-08-06 16:57:00,
2013-08-06 13:12:00,76.8,67.0,30.03,ESE,120,0.0,-999.0,72,-99.99,,,0.00,weatherlink.com 1.10,2013-08-06 17:12:00,
2013-08-06 13:27:00,77.8,68.0,30.02,East,91,0.0,-999.0,71,-99.99,,,0.00,weatherlink.com 1.10,2013-08-06 17:27:00,
2013-08-06 13:42:00,79.2,70.0,30.02,ENE,74,0.0,-999.0,73,-99.99,,,0.00,weatherlink.com 1.10,2013-08-06 17:42:00,
2013-08-06 13:57:00,78.5,69.0,30.02,ENE,74,0.0,-999.0,73,-99.99,,,0.00,weatherlink.com 1.10,2013-08-06 17:57:00,
2013-08-06 14:12:00,77.8,68.0,30.02,East,95,0.0,-999.0,72,-99.99,,,0.00,weatherlink.com 1.10,2013-08-06 18:12:00,
2013-08-06 14:27:00,78.2,68.0,30.01,East,88,0.0,-999.0,71,-99.99,,,0.00,weatherlink.com 1.10,2013-08-06 18:27:00,
2013-08-06 14:42:00,78.3,68.0,30.01,ESE,107,3.0,-999.0,71,-99.99,,,0.00,weatherlink.com 1.10,2013-08-06 18:42:00,
2013-08-06 14:57:00,78.7,69.0,30.01,East,101,0.0,-999.0,72,-99.99,,,0.00,weatherlink.com 1.10,2013-08-06 18:57:00,
2013-08-06 15:12:00,79.2,70.0,30.00,SSE,162,0.0,-999.0,73,-99.99,,,0.00,weatherlink.com 1.10,2013-08-06 19:12:00,
2013-08-06 15:27:00,79.4,70.0,30.00,NE,49,0.0,-999.0,72,-99.99,,,0.00,weatherlink.com 1.10,2013-08-06 19:27:00,
2013-08-06 15:42:00,78.9,70.0,30.00,East,93,0.0,-999.0,73,-99.99,,,0.00,weatherlink.com 1.10,2013-08-06 19:42:00,
2013-08-06 15:57:00,78.7,69.0,29.99,East,92,0.0,-999.0,73,-99.99,,,0.00,weatherlink.com 1.10,2013-08-06 19:57:00,
2013-08-06 16:12:00,78.6,69.0,29.99,NE,55,0.0,-999.0,73,-99.99,,,0.00,weatherlink.com 1.10,2013-08-06 20:12:00,
2013-08-06 16:27:00,77.5,68.0,29.98,ESE,113,0.0,-999.0,73,-99.99,,,0.00,weatherlink.com 1.10,2013-08-06 20:27:00,
2013-08-06 16:42:00,76.6,64.0,29.99,ESE,113,0.0,-999.0,66,-99.99,,,0.00,weatherlink.com 1.10,2013-08-06 20:42:00,
2013-08-06 16:57:00,76.2,60.0,29.99,East,84,0.0,-999.0,58,-99.99,,,0.00,weatherlink.com 1.10,2013-08-06 20:57:00,
2013-08-06 17:12:00,76.6,64.0,29.99,ESE,113,0.0,-999.0,65,-99.99,,,0.00,weatherlink.com 1.10,2013-08-06 21:12:00,
2013-08-06 17:27:00,77.2,63.0,29.99,East,79,0.0,-999.0,62,-99.99,,,0.00,weatherlink.com 1.10,2013-08-06 21:27:00,
2013-08-06 17:42:00,77.1,65.0,30.00,East,96,0.0,-999.0,67,-99.99,,,0.00,weatherlink.com 1.10,2013-08-06 21:42:00,
2013-08-06 17:57:00,76.8,64.0,30.00,East,90,0.0,-999.0,64,-99.99,,,0.00,weatherlink.com 1.10,2013-08-06 21:57:00,
2013-08-06 18:12:00,76.5,64.0,30.00,East,90,0.0,-999.0,65,-99.99,,,0.00,weatherlink.com 1.10,2013-08-06 22:12:00,
2013-08-06 18:27:00,76.2,64.0,30.01,SE,130,0.0,-999.0,65,-99.99,,,0.00,weatherlink.com 1.10,2013-08-06 22:27:00,
2013-08-06 18:43:00,75.9,62.0,30.01,ESE,103,0.0,-999.0,62,-99.99,,,0.00,weatherlink.com 1.10,2013-08-06 22:43:00,
2013-08-06 18:58:00,75.4,60.0,30.01,East,100,0.0,-999.0,60,-99.99,,,0.00,weatherlink.com 1.10,2013-08-06 22:58:00,
2013-08-06 19:12:00,74.9,58.0,30.01,East,99,0.0,-999.0,55,-99.99,,,0.00,weatherlink.com 1.10,2013-08-06 23:12:00,
2013-08-06 19:28:00,74.3,55.0,30.01,East,99,0.0,-999.0,52,-99.99,,,0.00,weatherlink.com 1.10,2013-08-06 23:28:00,
2013-08-06 19:43:00,73.8,51.0,30.01,East,99,0.0,-999.0,45,-99.99,,,0.00,weatherlink.com 1.10,2013-08-06 23:43:00,
2013-08-06 19:58:00,73.4,47.0,30.02,ENE,70,0.0,-999.0,39,-99.99,,,0.00,weatherlink.com 1.10,2013-08-06 23:58:00,
2013-08-06 20:13:00,73.2,44.0,30.03,ENE,70,0.0,-999.0,35,-99.99,,,0.00,weatherlink.com 1.10,2013-08-07 00:13:00,
2013-08-06 20:28:00,73.0,41.0,30.03,ENE,71,0.0,-999.0,31,-99.99,,,0.00,weatherlink.com 1.10,2013-08-07 00:28:00,
2013-08-06 20:43:00,72.7,39.0,30.04,East,87,0.0,-999.0,30,-99.99,,,0.00,weatherlink.com 1.10,2013-08-07 00:43:00,
2013-08-06 20:58:00,72.5,38.0,30.04,East,87,0.0,-999.0,28,-99.99,,,0.00,weatherlink.com 1.10,2013-08-07 00:58:00,
2013-08-06 21:13:00,72.3,36.0,30.04,East,87,0.0,-999.0,27,-99.99,,,0.00,weatherlink.com 1.10,2013-08-07 01:13:00,
2013-08-06 21:28:00,72.0,34.0,30.04,East,87,0.0,-999.0,25,-99.99,,,0.00,weatherlink.com 1.10,2013-08-07 01:28:00,
2013-08-06 21:43:00,71.9,32.0,30.05,East,87,0.0,-999.0,23,-99.99,,,0.00,weatherlink.com 1.10,2013-08-07 01:43:00,
2013-08-06 21:58:00,71.8,27.0,30.06,East,87,0.0,-999.0,19,-99.99,,,0.00,weatherlink.com 1.10,2013-08-07 01:58:00,
2013-08-06 22:13:00,71.7,27.0,30.07,East,87,0.0,-999.0,19,-99.99,,,0.00,weatherlink.com 1.10,2013-08-07 02:13:00,
2013-08-06 22:28:00,71.7,26.0,30.07,East,87,0.0,-999.0,18,-99.99,,,0.00,weatherlink.com 1.10,2013-08-07 02:28:00,
2013-08-06 22:43:00,71.7,18.0,30.07,East,88,0.0,-999.0,13,-99.99,,,0.00,weatherlink.com 1.10,2013-08-07 02:43:00,
2013-08-06 22:58:00,71.7,10.0,30.07,East,88,0.0,-999.0,9,-99.99,,,0.00,weatherlink.com 1.10,2013-08-07 02:58:00,
2013-08-06 23:12:00,71.4,4.0,30.07,East,88,0.0,-999.0,7,-99.99,,,0.00,weatherlink.com 1.10,2013-08-07 03:12:00,
2013-08-06 23:28:00,71.2,-35.0,30.07,NNW,333,1.0,-999.0,1,-99.99,,,0.00,weatherlink.com 1.10,2013-08-07 03:28:00,
2013-08-06 23:43:00,71.0,-99.9,30.07,North,355,0.0,-999.0,0,-99.99,,,0.00,weatherlink.com 1.10,2013-08-07 03:43:00,
2013-08-06 23:58:00,70.8,-99.9,30.07,North,355,0.0,-999.0,0,-99.99,,,0.00,weatherlink.com 1.10,2013-08-07 03:58:00,